Location: Roanoke
(37.2710°N, 79.9420°W)
Time: 00:08:36
(UTC-05:00)

S-56A Canister/Altair - Pass Details

Date: 24 November 2019
Orbit: 633 x 2500 km, 38.9° (Epoch: 08 December)

Event Time Altitude Azimuth Distance (km) Brightness Sun altitude
Rises 19:42:36 0° 284° (WNW) 4,808 12.6 -31.1°
Reaches altitude 10° 19:46:18 10° 284° (WNW) 3,516 11.7 -31.8°
Enters shadow 19:54:00 71° 250° (WSW) 1,101 8.2 -33.4°
Maximum altitude 19:54:39 78° 200° (SSW) 1,043 - -33.5°
Drops below altitude 10° 20:00:11 10° 114° (ESE) 2,380 - -34.6°
Sets 20:02:16 0° 113° (ESE) 3,174 - -35.0°
